Voltar ao catálogo

GEESAT 3-09

AtivoComunicaçõesLEO
NORAD 61019·PAYLOAD·🇨🇳 China

Lançado Sep 5, 2024 de Taiyuan Satellite Launch Center

Loading…

Próximas Passagens (próximas 24 horas)

TLE

AtualizadoSource: Space-Track

Época: Sep 14, 2026, 14:16 UTC

1 61019U 24159J   26257.59484605  .00001366  00000-0  18719-3 0  9996
2 61019  49.9989  27.8969 0021550  44.3866 315.8796 14.84477649110052

Acompanhe GEESAT 3-09 em tempo real com AllMySat

Download on the App Store